Baltimore, MD

9:52 AM EDT on September 29, 2016 (GMT -0400)
Baltimore-Washington International

Weather History for KBWI - October, 2014

Change the Weather History Date:

Saturday, October 25, 2014

  Actual Average Record
Temperature  
Mean Temperature 57 °F 53 °F  
Max Temperature 71 °F 64 °F 77 °F (1931)
Min Temperature 43 °F 42 °F 28 °F (1962)
Degree Days  
Heating Degree Days 8 12  
Month to date heating degree days 160 216  
Since 1 July heating degree days 197 269  
Cooling Degree Days 0 0  
Month to date cooling degree days 12 15  
Year to date cooling degree days 1084 1160  
Growing Degree Days 7 (Base 50)    
Moisture  
Dew Point 41 °F    
Average Humidity 60    
Maximum Humidity 82    
Minimum Humidity 37    
Precipitation  
Precipitation 0.00 in 0.10 in 2.22 in (1872)
Month to date precipitation 4.11 2.68  
Year to date precipitation 45.59 34.56  
Snow  
Snow 0.00 in 0.00 in T in (1930)
Month to date snowfall 0.0 0.0  
Since 1 July snowfall 0.0 0.0  
Snow Depth 0.00 in    
Sea Level Pressure  
Sea Level Pressure 29.85 in    
Wind  
Wind Speed 6 mph (WSW)    
Max Wind Speed 18 mph    
Max Gust Speed 28 mph    
Visibility 10 miles    
Events      
T = Trace of Precipitation, MM = Missing Value Source: NWS Daily Summary

Daily Weather History Graph

Daily Weather History Graph

Search for Another Location

Airport or City:

Trip Planner

Search our weather history database for the weather conditions in past years. The results will help you decide how hot, cold, wet, or windy it might be!

Date:

Astronomy

Oct. 25, 2014 Rise Set
Actual Time 7:26 AM EDT 6:14 PM EDT
Civil Twilight 6:59 AM EDT 6:41 PM EDT
Nautical Twilight 6:28 AM EDT 7:12 PM EDT
Astronomical Twilight 5:57 AM EDT 7:43 PM EDT
Moon 9:02 AM EDT (10/25) 7:36 PM EDT (10/25)
Length of Visible Light 11h 42m
Length of Day
10h 47m
Waxing Crescent, 3% of the Moon is Illuminated
Oct 25
Waxing Crescent
Oct 30
First Quarter
Nov 6
Full
Nov 14
Last Quarter
Nov 22
New

Hourly Weather History & Observations

Time (EDT) Temp. Windchill Dew Point Humidity Pressure Visibility Wind Dir Wind Speed Gust Speed Precip Events Conditions
12:54 AM 50.0 °F - 37.9 °F 63% 29.94 in 10.0 mi WNW 5.8 mph - N/A   Partly Cloudy
1:54 AM 48.0 °F - 37.9 °F 68% 29.94 in 10.0 mi West 5.8 mph - N/A   Clear
2:54 AM 46.9 °F - 37.9 °F 71% 29.94 in 10.0 mi West 4.6 mph - N/A   Clear
3:54 AM 45.0 °F 43.5 °F 37.9 °F 76% 29.94 in 10.0 mi WSW 3.5 mph - N/A   Clear
4:54 AM 46.0 °F 43.9 °F 37.9 °F 73% 29.94 in 10.0 mi West 4.6 mph - N/A   Clear
5:54 AM 46.0 °F - 37.9 °F 73% 29.94 in 10.0 mi Calm Calm - N/A   Clear
6:54 AM 43.0 °F - 37.9 °F 82% 29.94 in 10.0 mi Calm Calm - N/A   Clear
7:54 AM 46.0 °F - 39.0 °F 76% 29.95 in 10.0 mi Calm Calm - N/A   Partly Cloudy
8:54 AM 51.1 °F - 42.1 °F 71% 29.95 in 10.0 mi Calm Calm - N/A   Scattered Clouds
9:54 AM 57.9 °F - 43.0 °F 58% 29.95 in 10.0 mi West 5.8 mph - N/A   Scattered Clouds
10:54 AM 63.0 °F - 42.1 °F 46% 29.94 in 10.0 mi West 9.2 mph - N/A   Scattered Clouds
11:54 AM 66.0 °F - 42.1 °F 42% 29.90 in 10.0 mi West 6.9 mph - N/A   Partly Cloudy
12:54 PM 66.9 °F - 42.1 °F 40% 29.86 in 10.0 mi West 11.5 mph 17.3 mph N/A   Partly Cloudy
1:54 PM 69.1 °F - 43.0 °F 39% 29.83 in 10.0 mi West 17.3 mph 27.6 mph N/A   Partly Cloudy
2:54 PM 70.0 °F - 42.1 °F 36% 29.79 in 10.0 mi West 12.7 mph 23.0 mph N/A   Partly Cloudy
3:54 PM 69.1 °F - 42.1 °F 38% 29.78 in 10.0 mi West 8.1 mph - N/A   Mostly Cloudy
4:54 PM 70.0 °F - 42.1 °F 36% 29.75 in 10.0 mi WSW 10.4 mph - N/A   Partly Cloudy
5:54 PM 66.9 °F - 43.0 °F 42% 29.73 in 10.0 mi SW 3.5 mph - N/A   Partly Cloudy
6:54 PM 64.0 °F - 41.0 °F 43% 29.72 in 10.0 mi Variable 4.6 mph - N/A   Scattered Clouds
7:54 PM 61.0 °F - 39.0 °F 44% 29.72 in 10.0 mi SW 5.8 mph - N/A   Partly Cloudy
8:54 PM 59.0 °F - 41.0 °F 51% 29.71 in 10.0 mi SW 5.8 mph - N/A   Clear
9:54 PM 57.0 °F - 42.1 °F 57% 29.72 in 10.0 mi West 6.9 mph - N/A   Clear
10:54 PM 59.0 °F - 42.1 °F 53% 29.71 in 10.0 mi WSW 6.9 mph - N/A   Clear
11:54 PM 60.1 °F - 43.0 °F 53% 29.68 in 10.0 mi SW 8.1 mph - N/A   Clear